パンスターズ彗星

C/2024 F2 ( PanSTARRS )

English version
Home page
Updated on August 10, 2025

---------------------------------------------------------------------

・ プロフィール

発見日 2024年3月21日
発見光度 21.0等
発見者 Pan-STARRS 1 telescope (Haleakala)

・ 写真集

・ 軌道要素

Epoch 2025 May 5.0 TT = JDT 2460800.5
T 2024 July 29.07425 TT                                 Pike
q   3.9679252            (2000.0)            P               Q
n   0.03141226     Peri.  112.90504     -0.29425858     +0.94290173
a   9.9480190      Node   138.94052     -0.94061197     -0.25679825
e   0.6011341      Incl.   13.74255     -0.16929560     -0.21211078
P  31.4
From 198 observations 2024 Mar. 21-2025 July 29, mean residual 0".4.

・ 光度変化

        m1 = 10.5 + 5 logΔ + 10.0 log r

---------------------------------------------------------------------

軌道要素はM.P.E.C. 2025-O159に掲載されたものです。
光度グラフはComet for Windowsで作成したものです。

---------------------------------------------------------------------

Copyright(C) Seiichi Yoshida (comet@aerith.net). All rights reserved.